Location: Limoges
(45.8354°N, 1.2645°E)
Time: 19:04:36
(UTC+02:00)

Courier 1B Rocket - Pass Details

Date: 01 March 2024
Orbit: 920 x 1201 km, 28.2° (Epoch: 20 April)

Event Time Altitude Azimuth Distance (km) Brightness Sun altitude
Rises 02:25:54 0° 227° (SW) 3,710 - -48.0°
Reaches altitude 10° 02:29:59 10° 204° (SSW) 2,705 - -47.7°
Maximum altitude 02:33:16 14° 173° (S) 2,360 - -47.4°
Drops below altitude 10° 02:36:30 10° 142° (SE) 2,638 - -47.1°
Sets 02:40:22 0° 119° (ESE) 3,557 - -46.7°
